Home   Weather   Germany   Hameln   Past weeks
Flag for Germany

Past Weather in Hameln, Lower Saxony, Germany — Yesterday and Last 2 Weeks

Currently: 37 °F. Fog. (Weather station: Bueckeburg, Germany). See more current weather

Past Weather in Hameln — Graph

°F

Hameln Temperature Yesterday

Maximum temperature yesterday: 39 °F (at 1:20 pm)
Minimum temperature yesterday: 32 °F (at 12:20 am)
Average temperature yesterday: 36 °F

High & Low Weather Summary for the Past Weeks

 TemperatureHumidityPressure
High48 °F (Feb 3, 10:17 am)100% (Jan 22, 2:20 pm)30.74 "Hg (Jan 22, 2:20 pm)
Low27 °F (Jan 25, 11:41 pm)61% (Feb 4, 3:20 pm)29.80 "Hg (Jan 30, 5:20 am)
Average37 °F88%30.30 "Hg
* Reported Jan 22 2:20 pm — Feb 6 2:03 pm, Hameln. Weather by CustomWeather, © 2023

Note: Actual official high and low records may vary slightly from our data, if they occured in-between our weather recording intervals... More about our weather records

Hameln Weather History for the Previous 24 Hours

Scroll right to see more
 ConditionsComfort  
Time TempWeatherWind HumidityBarometerVisibility
2:03 pm
Mon, Feb 6
37 °FFog.5 mph100%30.72 "Hg2 mi
1:20 pm37 °FFog.5 mph93%30.72 "Hg3 mi
12:34 pm36 °FFog.3 mph100%30.72 "Hg2 mi
12:13 pm36 °FFog.2 mph100%30.72 "Hg1 mi
12:03 pm36 °FFog.3 mph100%30.72 "Hg1 mi
11:52 am36 °FFog.6 mph100%30.72 "Hg1 mi
11:20 am36 °FFog.5 mph100%30.72 "Hg1 mi
10:47 am34 °FFog.2 mph100%30.72 "Hg2 mi
10:20 am34 °FFog.2 mph100%30.74 "Hg1 mi
9:57 am34 °FFog.1 mph100%30.74 "Hg1 mi
9:20 am32 °FFog.2 mph100%30.72 "Hg1 mi
8:54 am32 °FIce fog.3 mph100%30.72 "Hg0 mi
8:20 am32 °FIce fog.3 mph100%30.74 "Hg0 mi
7:20 am32 °FIce fog.3 mph100%30.72 "Hg0 mi
6:20 am32 °FIce fog.5 mph100%30.72 "Hg0 mi
5:20 am32 °FChilly.3 mph100%30.72 "Hg0 mi
4:20 am34 °FChilly.2 mph100%30.72 "Hg1 mi
3:20 am34 °FChilly.5 mph100%30.72 "Hg0 mi
2:20 am36 °FChilly.3 mph93%30.72 "Hg0 mi
12:20 am37 °FChilly.3 mph93%30.72 "Hg3 mi
11:20 pm
Sun, Feb 5
37 °FChilly.3 mph93%30.72 "Hg4 mi
10:20 pm37 °FChilly.5 mph93%30.69 "Hg4 mi
9:20 pm37 °FChilly.7 mph93%30.69 "Hg3 mi
8:20 pm37 °FChilly.5 mph93%30.69 "Hg2 mi
7:20 pm37 °FChilly.6 mph93%30.66 "Hg2 mi
6:20 pm37 °FChilly.3 mph93%30.63 "Hg2 mi
5:20 pm37 °FChilly.5 mph100%30.63 "Hg4 mi
4:20 pm37 °FChilly.6 mph100%30.60 "Hg1 mi
3:20 pm37 °FChilly.8 mph100%30.57 "Hg2 mi
Weather by CustomWeather, © 2023

See weather overview